Location: Creola (historical)
(38.1334°N, 100.5024°W)
Time: 07:30:36
(UTC+00:00)

COSMO-SKYMED 1 - Pass Details

Date: 18 October 2021
Orbit: 621 x 623 km, 97.9° (Epoch: 30 November)

Event Time Altitude Azimuth Distance (km) Brightness Sun altitude
Rises 12:20:44 0° 180° (S) 2,888 6.1 -7.3°
Reaches altitude 10° 12:22:59 10° 186° (S) 1,986 5.2 -6.8°
Maximum altitude 12:27:08 47° 261° (W) 832 2.8 -6.0°
Drops below altitude 10° 12:31:20 10° 335° (NNW) 2,001 4.9 -5.2°
Sets 12:33:37 0° 341° (NNW) 2,912 5.7 -4.8°
